Location: Unspecified
(0.0000°N, 0.0000°E)
Time: 08:12:47
(UTC+01:00)

Haruka - Visible Passes

Search period start: 19 December 2014 00:00
Search period end: 29 December 2014 00:00
Orbit: 537 x 21239 km, 31.3° (Epoch: 16 December)

Date Brightness Start Highest point End Pass type
(mag) Time Alt. Az. Time Alt. Az. Time Alt. Az.
19 Dec 6.4 20:00:25 10° WSW 20:55:24 27° S 21:04:51 10° SE visible
20 Dec 5.8 21:51:35 10° SW 22:09:04 27° S 22:10:29 26° SSE visible
21 Dec 6.4 04:50:23 10° N 04:53:19 12° NNE 04:58:23 10° NE visible
21 Dec 6.1 23:10:11 10° SW 23:15:52 22° SSW 23:15:52 22° SSW visible
22 Dec 6.4 05:57:31 10° NNW 06:08:20 20° NNE 07:15:11 10° E visible
24 Dec 6.6 15:51:43 10° W 20:00:26 30° S 20:13:11 10° SE visible
25 Dec 5.8 20:45:30 10° SW 21:15:53 29° S 21:20:59 19° SE visible
26 Dec 5.5 22:13:08 10° SW 22:26:22 35° S 22:26:22 35° S visible
27 Dec 6.5 05:07:01 10° N 05:13:45 15° NNE 05:29:22 10° ENE visible
27 Dec 6.4 23:28:57 10° SW 23:31:44 17° SW 23:31:44 17° SW visible
28 Dec 6.6 06:14:23 10° NNW 06:30:00 27° NE 10:19:26 10° ESE visible
